User: anonymous   Login
Location: Davayat
(45.9471°N, 3.1105°E)
Time: 04:19:42
(UTC+00:00)
Language:

SMAP - Orbit

View from above orbital plane
View from above orbital plane
View from above satellite
View from above satellite

Ground track
Ground track

The orbit data is extracted from the following two-line orbital elements,

1 40376U 15003A   21058.49802543  .00000067  00000-0  21956-4 0  9990
2 40376  98.1256  67.2697 0000810  76.1732 283.9561 14.63394855324523
Epoch (UTC): 27 February 2021 11:57:09
Eccentricity: 0.0000810
inclination: 98.1256°
perigee height: 681 km
apogee height: 683 km
right ascension of ascending node: 67.2697°
argument of perigee: 76.1732°
revolutions per day: 14.63394855
mean anomaly at epoch: 283.9561°
orbit number at epoch: 32452

The dashed part of the orbit path shows where the satellite is in the earth's shadow,  

DLR